This is the latest recevied weather packets stored in our database for station/object DL4JCP-6. If no packets are shown the sender has not sent any weather packets the latest 10 day(s).
| Time | Temp. | Humidity | Pressure | Rain* | Wind** | Luminosity | Snow |
|---|---|---|---|---|---|---|---|
| 1777891751 | 20° C | 52% | 1015 hPa | 0 mm | - | - | - |
| 1777891691 | 20° C | 52% | 1015 hPa | 0 mm | - | - | - |
| 1777891451 | 19.44° C | 53% | 1014.9 hPa | 0 mm | - | - | - |
| 1777891151 | 20° C | 53% | 1015 hPa | 0 mm | - | - | - |
| 1777890851 | 19.44° C | 53% | 1015 hPa | 0 mm | - | - | - |
| 1777890791 | 19.44° C | 53% | 1015 hPa | 0 mm | - | - | - |
| 1777890551 | 19.44° C | 54% | 1015.1 hPa | 0 mm | - | - | - |
| 1777890251 | 19.44° C | 56% | 1015.2 hPa | 0 mm | - | - | - |
| 1777889951 | 19.44° C | 56% | 1015.3 hPa | 0 mm | - | - | - |
| 1777889893 | 19.44° C | 56% | 1015.3 hPa | 0 mm | - | - | - |
| 1777889651 | 19.44° C | 55% | 1015.3 hPa | 0 mm | - | - | - |
| 1777889350 | 20° C | 55% | 1015.6 hPa | 0 mm | - | - | - |
| 1777889050 | 20° C | 54% | 1015.5 hPa | 0 mm | - | - | - |
| 1777888994 | 20° C | 54% | 1015.5 hPa | 0 mm | - | - | - |
| 1777888754 | 20° C | 53% | 1015.5 hPa | 0 mm | - | - | - |
| 1777888450 | 19.44° C | 53% | 1015.6 hPa | 0 mm | - | - | - |
| 1777888150 | 19.44° C | 52% | 1015.5 hPa | 0 mm | - | - | - |
| 1777888094 | 19.44° C | 52% | 1015.5 hPa | 0 mm | - | - | - |
| 1777887850 | 20° C | 50% | 1015.4 hPa | 0 mm | - | - | - |
| 1777887550 | 20.56° C | 50% | 1015.6 hPa | 0 mm | - | - | - |
| 1777887252 | 20° C | 48% | 1015.4 hPa | 0 mm | - | - | - |
| 1777887193 | 20° C | 48% | 1015.4 hPa | 0 mm | - | - | - |
| 1777886290 | 19.44° C | 51% | 1015.8 hPa | 0 mm | - | - | - |
| 1777885390 | 20° C | 48% | 1016 hPa | 0 mm | - | - | - |
| 1777884490 | 19.44° C | 50% | 1016 hPa | 0 mm | - | - | - |
* Rain latest hour (hover to see other rain measurements)
** Current wind speed in m/s (hover to see current wind gust speed)